CP2555 SLCP-SLET

Flight info

Callsign CP2555
Flight time 0h 41m
Altitude 13000
Route SLET
Aircraft BT36/L-BDFGLORY/S

Departure

Time 2026-05-07 20:00
Airport Concepción Airport (SLCP)

Arrival

Time 2026-05-07 20:42
Airport El Trompillo Airport (SLET)
Time Latitude Longitude Altitude Speed Heading
2026-05-07 19:54 -16.13809 -62.02800 1625 ft 0 kts 338°
2026-05-07 19:58 -16.13879 -62.02833 1625 ft 35 kts 166°
2026-05-07 19:59 -16.14108 -62.02725 1628 ft 40 kts 156°
2026-05-07 19:59 -16.14233 -62.02668 1632 ft 45 kts 154°
2026-05-07 19:59 -16.14554 -62.02516 1646 ft 55 kts 153°
2026-05-07 19:59 -16.14899 -62.02342 1658 ft 44 kts 153°
2026-05-07 20:00 -16.15033 -62.02291 1667 ft 9 kts 175°
2026-05-07 20:00 -16.15025 -62.02281 1663 ft 10 kts 337°
2026-05-07 20:00 -16.14711 -62.02435 1695 ft 92 kts 335°
2026-05-07 20:00 -16.14055 -62.02772 2359 ft 113 kts 338°
2026-05-07 20:01 -16.13235 -62.02887 3086 ft 146 kts 26°
2026-05-07 20:01 -16.12718 -62.01735 3191 ft 203 kts 83°
2026-05-07 20:01 -16.13593 -62.00560 3107 ft 210 kts 158°
2026-05-07 20:01 -16.14798 -62.00539 2625 ft 165 kts 228°
2026-05-07 20:02 -16.15165 -62.01514 2210 ft 141 kts 279°
2026-05-07 20:02 -16.14574 -62.02496 1707 ft 194 kts 333°
2026-05-07 20:02 -16.13591 -62.02873 2864 ft 118 kts 15°
2026-05-07 20:02 -16.13411 -62.01917 1954 ft 189 kts 114°
2026-05-07 20:03 -16.14269 -62.00869 2403 ft 201 kts 162°
2026-05-07 20:03 -16.15685 -62.00760 2986 ft 213 kts 183°
2026-05-07 20:03 -16.17083 -62.00715 3382 ft 185 kts 182°
2026-05-07 20:03 -16.18332 -62.00691 3744 ft 174 kts 190°
2026-05-07 20:04 -16.19331 -62.01203 4121 ft 155 kts 237°
2026-05-07 20:04 -16.20186 -62.01954 4607 ft 172 kts 224°
2026-05-07 20:04 -16.21229 -62.02646 5115 ft 181 kts 221°
2026-05-07 20:04 -16.22308 -62.03330 5620 ft 184 kts 220°
2026-05-07 20:05 -16.23403 -62.04022 6133 ft 185 kts 221°
2026-05-07 20:05 -16.24505 -62.04724 6617 ft 186 kts 221°
2026-05-07 20:05 -16.25619 -62.05431 7110 ft 187 kts 221°
2026-05-07 20:05 -16.26731 -62.06137 7615 ft 188 kts 221°
2026-05-07 20:06 -16.27847 -62.06845 8139 ft 187 kts 221°
2026-05-07 20:06 -16.28952 -62.07547 8653 ft 185 kts 221°
2026-05-07 20:06 -16.30056 -62.08250 9162 ft 187 kts 221°
2026-05-07 20:06 -16.31156 -62.08951 9608 ft 189 kts 221°
2026-05-07 20:07 -16.32294 -62.09675 10023 ft 190 kts 221°
2026-05-07 20:07 -16.33420 -62.10390 10431 ft 190 kts 220°
2026-05-07 20:07 -16.34547 -62.11105 10831 ft 189 kts 219°
2026-05-07 20:07 -16.35677 -62.11825 11249 ft 194 kts 219°
2026-05-07 20:08 -16.36835 -62.12562 11670 ft 200 kts 219°
2026-05-07 20:08 -16.38034 -62.13325 12115 ft 202 kts 218°
2026-05-07 20:08 -16.39239 -62.14087 12594 ft 202 kts 218°
2026-05-07 20:08 -16.40442 -62.14852 13033 ft 205 kts 217°
2026-05-07 20:09 -16.41693 -62.15651 13048 ft 214 kts 217°
2026-05-07 20:09 -16.42964 -62.16463 13045 ft 215 kts 216°
2026-05-07 20:09 -16.44243 -62.17272 13040 ft 215 kts 217°
2026-05-07 20:10 -16.46797 -62.18897 13029 ft 214 kts 217°
2026-05-07 20:10 -16.48037 -62.19687 13028 ft 215 kts 217°
2026-05-07 20:10 -16.49333 -62.20498 13018 ft 210 kts 216°
2026-05-07 20:10 -16.50570 -62.21276 13014 ft 205 kts 217°
2026-05-07 20:11 -16.51373 -62.21794 13011 ft 204 kts 217°
2026-05-07 20:11 -16.52980 -62.22827 13006 ft 203 kts 217°
2026-05-07 20:11 -16.54186 -62.23593 13006 ft 202 kts 217°
2026-05-07 20:11 -16.55365 -62.24348 13005 ft 204 kts 217°
2026-05-07 20:12 -16.56197 -62.24880 13002 ft 204 kts 217°
2026-05-07 20:12 -16.57407 -62.25649 13007 ft 205 kts 217°
2026-05-07 20:12 -16.58629 -62.26425 13003 ft 205 kts 217°
2026-05-07 20:12 -16.59830 -62.27193 13003 ft 205 kts 217°
2026-05-07 20:13 -16.61073 -62.27991 13001 ft 205 kts 217°
2026-05-07 20:13 -16.62288 -62.28764 13003 ft 205 kts 217°
2026-05-07 20:13 -16.63507 -62.29544 13002 ft 204 kts 217°
2026-05-07 20:13 -16.64707 -62.30308 12998 ft 205 kts 217°
2026-05-07 20:14 -16.65927 -62.31085 13002 ft 205 kts 217°
2026-05-07 20:14 -16.67142 -62.31862 13001 ft 206 kts 217°
2026-05-07 20:14 -16.68363 -62.32643 13000 ft 205 kts 216°
2026-05-07 20:14 -16.69576 -62.33422 13000 ft 204 kts 217°
2026-05-07 20:15 -16.70790 -62.34196 12998 ft 204 kts 216°
2026-05-07 20:15 -16.72001 -62.34971 13001 ft 204 kts 217°
2026-05-07 20:15 -16.73212 -62.35743 12998 ft 204 kts 217°
2026-05-07 20:15 -16.74440 -62.36527 12996 ft 203 kts 217°
2026-05-07 20:16 -16.75633 -62.37291 12999 ft 204 kts 217°
2026-05-07 20:16 -16.76843 -62.38065 12997 ft 204 kts 216°
2026-05-07 20:16 -16.78058 -62.38840 12995 ft 205 kts 217°
2026-05-07 20:16 -16.78862 -62.39353 12995 ft 205 kts 217°
2026-05-07 20:17 -16.79012 -62.39449 12998 ft 205 kts 217°
2026-05-07 20:17 -16.80258 -62.40246 12995 ft 205 kts 217°
2026-05-07 20:17 -16.81473 -62.41026 12998 ft 205 kts 217°
2026-05-07 20:17 -16.82684 -62.41801 12998 ft 204 kts 217°
2026-05-07 20:18 -16.83899 -62.42577 12996 ft 204 kts 217°
2026-05-07 20:18 -16.85114 -62.43356 12995 ft 206 kts 217°
2026-05-07 20:18 -16.86330 -62.44134 12999 ft 207 kts 218°
2026-05-07 20:18 -16.87560 -62.44923 13001 ft 208 kts 218°
2026-05-07 20:19 -16.88804 -62.45719 12999 ft 208 kts 217°
2026-05-07 20:19 -16.90037 -62.46509 13001 ft 209 kts 218°
2026-05-07 20:19 -16.91275 -62.47301 12999 ft 208 kts 217°
2026-05-07 20:19 -16.92519 -62.48097 13002 ft 209 kts 217°
2026-05-07 20:20 -16.93744 -62.48884 12999 ft 209 kts 217°
2026-05-07 20:20 -16.94983 -62.49679 12995 ft 209 kts 218°
2026-05-07 20:20 -16.96219 -62.50469 13001 ft 208 kts 217°
2026-05-07 20:20 -16.97457 -62.51265 12998 ft 207 kts 217°
2026-05-07 20:21 -16.98685 -62.52052 12993 ft 206 kts 217°
2026-05-07 20:21 -16.99891 -62.52826 12994 ft 205 kts 217°
2026-05-07 20:21 -17.01109 -62.53607 12996 ft 205 kts 217°
2026-05-07 20:21 -17.02339 -62.54394 12997 ft 205 kts 218°
2026-05-07 20:22 -17.03538 -62.55165 12996 ft 205 kts 217°
2026-05-07 20:22 -17.04753 -62.55943 12995 ft 204 kts 216°
2026-05-07 20:22 -17.05970 -62.56724 12996 ft 204 kts 217°
2026-05-07 20:22 -17.07170 -62.57495 12995 ft 204 kts 217°
2026-05-07 20:23 -17.08384 -62.58277 12991 ft 204 kts 216°
2026-05-07 20:23 -17.09599 -62.59056 12993 ft 204 kts 217°
2026-05-07 20:23 -17.10808 -62.59830 12990 ft 204 kts 217°
2026-05-07 20:23 -17.12020 -62.60608 12994 ft 204 kts 217°
2026-05-07 20:24 -17.13216 -62.61377 12996 ft 204 kts 218°
2026-05-07 20:24 -17.14422 -62.62154 12990 ft 203 kts 218°
2026-05-07 20:24 -17.15633 -62.62931 12995 ft 204 kts 217°
2026-05-07 20:24 -17.16842 -62.63710 12989 ft 204 kts 217°
2026-05-07 20:25 -17.18036 -62.64474 12989 ft 201 kts 217°
2026-05-07 20:25 -17.19214 -62.65235 12991 ft 202 kts 216°
2026-05-07 20:25 -17.20426 -62.66017 12992 ft 203 kts 217°
2026-05-07 20:25 -17.21633 -62.66790 12993 ft 203 kts 216°
2026-05-07 20:26 -17.22829 -62.67559 12990 ft 204 kts 217°
2026-05-07 20:26 -17.24032 -62.68335 12989 ft 204 kts 217°
2026-05-07 20:26 -17.25248 -62.69116 12987 ft 206 kts 216°
2026-05-07 20:26 -17.26476 -62.69905 12990 ft 208 kts 217°
2026-05-07 20:27 -17.27716 -62.70702 12984 ft 204 kts 217°
2026-05-07 20:27 -17.28856 -62.71435 12980 ft 195 kts 217°
2026-05-07 20:27 -17.30033 -62.72197 12984 ft 205 kts 217°
2026-05-07 20:27 -17.31254 -62.72984 12988 ft 206 kts 217°
2026-05-07 20:28 -17.32479 -62.73770 12984 ft 206 kts 217°
2026-05-07 20:28 -17.33704 -62.74558 12986 ft 206 kts 217°
2026-05-07 20:28 -17.34926 -62.75350 12985 ft 206 kts 217°
2026-05-07 20:28 -17.36150 -62.76139 12944 ft 208 kts 216°
2026-05-07 20:29 -17.37378 -62.76925 12719 ft 205 kts 218°
2026-05-07 20:29 -17.38519 -62.77657 12495 ft 201 kts 218°
2026-05-07 20:29 -17.39725 -62.78431 12220 ft 200 kts 219°
2026-05-07 20:29 -17.40906 -62.79201 11961 ft 200 kts 219°
2026-05-07 20:30 -17.42083 -62.79963 11696 ft 201 kts 219°
2026-05-07 20:30 -17.43276 -62.80727 11438 ft 201 kts 221°
2026-05-07 20:30 -17.44464 -62.81495 11180 ft 200 kts 221°
2026-05-07 20:30 -17.45656 -62.82264 10923 ft 200 kts 220°
2026-05-07 20:31 -17.46743 -62.82961 10691 ft 201 kts 219°
2026-05-07 20:31 -17.47947 -62.83724 10439 ft 202 kts 220°
2026-05-07 20:31 -17.49144 -62.84492 10190 ft 202 kts 221°
2026-05-07 20:31 -17.50325 -62.85258 9944 ft 201 kts 221°
2026-05-07 20:32 -17.51510 -62.86026 9702 ft 201 kts 221°
2026-05-07 20:32 -17.52692 -62.86786 9422 ft 201 kts 221°
2026-05-07 20:32 -17.53903 -62.87559 9144 ft 202 kts 221°
2026-05-07 20:32 -17.55098 -62.88342 8867 ft 201 kts 223°
2026-05-07 20:33 -17.56284 -62.89123 8596 ft 201 kts 222°
2026-05-07 20:33 -17.57473 -62.89891 8338 ft 200 kts 223°
2026-05-07 20:33 -17.58638 -62.90640 8123 ft 198 kts 223°
2026-05-07 20:33 -17.59807 -62.91396 7909 ft 198 kts 223°
2026-05-07 20:34 -17.60983 -62.92158 7691 ft 199 kts 223°
2026-05-07 20:34 -17.62158 -62.92917 7481 ft 199 kts 223°
2026-05-07 20:34 -17.63340 -62.93681 7268 ft 199 kts 223°
2026-05-07 20:34 -17.64516 -62.94441 7058 ft 198 kts 224°
2026-05-07 20:35 -17.65693 -62.95202 6850 ft 198 kts 224°
2026-05-07 20:35 -17.66853 -62.95953 6649 ft 198 kts 224°
2026-05-07 20:35 -17.68027 -62.96713 6441 ft 198 kts 225°
2026-05-07 20:35 -17.69208 -62.97477 6239 ft 198 kts 225°
2026-05-07 20:36 -17.70388 -62.98242 6026 ft 199 kts 225°
2026-05-07 20:36 -17.71568 -62.99005 5803 ft 199 kts 225°
2026-05-07 20:36 -17.72746 -62.99767 5539 ft 201 kts 225°
2026-05-07 20:36 -17.73933 -63.00537 5261 ft 201 kts 225°
2026-05-07 20:37 -17.75114 -63.01300 5042 ft 192 kts 224°
2026-05-07 20:37 -17.76211 -63.01998 4868 ft 178 kts 226°
2026-05-07 20:37 -17.77248 -63.02673 4720 ft 174 kts 227°
2026-05-07 20:37 -17.78279 -63.03349 4535 ft 175 kts 227°
2026-05-07 20:38 -17.79314 -63.04026 4307 ft 182 kts 226°
2026-05-07 20:38 -17.80407 -63.04738 4043 ft 188 kts 225°
2026-05-07 20:38 -17.81528 -63.05460 3779 ft 189 kts 225°
2026-05-07 20:38 -17.82643 -63.06179 3520 ft 187 kts 225°
2026-05-07 20:39 -17.83738 -63.06888 3413 ft 181 kts 225°
2026-05-07 20:39 -17.84834 -63.07611 3117 ft 186 kts 229°
2026-05-07 20:39 -17.85637 -63.08557 2931 ft 164 kts 255°
2026-05-07 20:39 -17.86024 -63.09606 2930 ft 146 kts 272°
2026-05-07 20:40 -17.86064 -63.10624 2891 ft 138 kts 287°
2026-05-07 20:40 -17.85821 -63.11577 2703 ft 137 kts 301°
2026-05-07 20:40 -17.85357 -63.12413 2489 ft 122 kts 308°
2026-05-07 20:40 -17.84923 -63.13126 2327 ft 111 kts 308°
2026-05-07 20:41 -17.84581 -63.13893 2106 ft 123 kts 301°
2026-05-07 20:41 -17.84135 -63.14619 1915 ft 116 kts 319°
2026-05-07 20:41 -17.83566 -63.15194 1806 ft 114 kts 323°
2026-05-07 20:41 -17.82948 -63.15716 1640 ft 117 kts 321°
2026-05-07 20:42 -17.82315 -63.16256 1510 ft 114 kts 321°
2026-05-07 20:42 -17.81812 -63.16643 1364 ft 67 kts 327°
2026-05-07 20:42 -17.81564 -63.16825 1365 ft 17 kts 322°
2026-05-07 20:42 -17.81454 -63.16913 1367 ft 29 kts 323°
2026-05-07 20:43 -17.81231 -63.17082 1368 ft 22 kts 324°
2026-05-07 20:43 -17.81188 -63.17114 1369 ft 22 kts 324°
2026-05-07 20:43 -17.81018 -63.17239 1369 ft 13 kts 326°
2026-05-07 20:43 -17.80914 -63.17268 1371 ft 0 kts
2026-05-07 20:45 -17.80872 -63.17286 1372 ft 20 kts 332°
2026-05-07 20:45 -17.80693 -63.17390 1374 ft 43 kts 330°
2026-05-07 20:45 -17.80560 -63.17482 1374 ft 28 kts 324°
2026-05-07 20:46 -17.80366 -63.17630 1378 ft 17 kts 324°
2026-05-07 20:46 -17.80241 -63.17668 1378 ft 17 kts 347°
2026-05-07 20:46 -17.80070 -63.17786 1379 ft 17 kts 281°
2026-05-07 20:46 -17.80019 -63.17838 1380 ft 10 kts 340°
2026-05-07 20:47 -17.79981 -63.17851 1379 ft 0 kts 331°